Theta_e
298 298 297 296 295 295 294 294 291 291 291 295 298 300 301 303 303 302 303 305 306 307 307 308 309 309 309 309 310 309 308 308 307 308 308 308 308 310 312 316 318 321 323 325
294 297 297 294 295 296 296 295 293 294 292 300 302 302 302 301 301 301 302 303 305 305 306 306 306 306 306 306 307 307 305 305 305 304 304 306 307 308 311 315 316 320 323 324
290 295 295 290 294 295 296 297 296 291 296 300 299 299 299 299 300 301 302 302 304 304 304 304 305 305 304 304 304 304 304 303 303 302 303 304 306 308 311 312 315 322 325 328
290 292 283 294 300 299 295 297 298 298 297 298 299 301 300 301 300 300 301 302 302 303 302 303 304 303 303 304 303 303 303 303 303 302 302 304 306 308 312 313 319 322 325 327
289 288 291 294 296 295 293 293 300 297 298 299 300 300 299 302 302 302 301 302 302 303 303 302 302 303 303 302 302 302 301 301 301 301 301 304 304 308 311 316 317 316 319 322
292 286 282 293 299 302 300 289 300 300 299 299 299 290 295 302 302 300 301 301 300 301 302 301 301 302 301 299 299 298 299 300 301 301 303 302 305 308 312 316 313 314 313 314
289 288 291 298 300 302 287 290 301 301 301 300 296 298 301 301 300 300 300 300 301 300 299 299 300 300 298 297 296 298 300 300 301 302 301 303 305 312 314 309 308 306 307 307
291 287 284 302 300 289 298 305 304 303 302 300 301 300 300 298 298 298 297 298 300 298 297 298 299 298 296 296 298 299 299 300 299 300 303 306 309 312 309 306 305 304 304 302
294 292 304 304 302 306 307 304 303 303 303 302 299 297 296 295 295 295 297 297 297 296 295 296 297 297 295 296 298 298 298 298 299 302 305 310 310 311 305 305 303 303 302 300
296 299 300 303 305 306 305 305 306 306 303 301 296 295 294 294 294 294 294 294 295 294 293 293 295 296 296 297 298 299 298 299 302 304 306 312 311 310 306 303 302 303 301 298
297 299 301 302 304 305 306 306 305 304 302 299 296 294 293 292 293 293 293 293 294 293 293 293 295 296 297 298 299 298 300 302 304 307 306 300 299 302 304 304 303 303 302 300
294 301 302 301 305 307 304 304 303 301 298 297 295 293 293 292 293 293 292 293 293 293 294 295 296 297 299 301 300 299 300 302 305 307 302 300 299 297 293 295 295 295 296 299
300 305 306 306 306 306 305 303 303 300 298 295 295 294 294 292 293 294 294 293 293 294 295 297 298 301 303 305 302 301 300 304 305 303 300 299 298 296 294 293 293 293 293 294
305 304 302 302 302 305 304 305 304 300 298 296 295 295 294 293 294 293 293 294 296 298 302 302 301 302 304 304 302 303 304 300 306 303 302 299 298 297 298 296 293 292 292 293
303 305 304 305 305 303 305 304 300 297 295 294 295 294 294 293 293 293 295 296 298 301 303 304 303 303 304 305 305 304 306 307 305 303 301 299 298 296 295 294 292 292 293 293
303 303 303 302 303 303 302 300 297 295 294 294 293 294 295 295 294 294 295 297 298 299 302 302 301 302 304 305 304 303 302 298 299 300 299 297 296 295 294 294 294 294 295 296
300 299 300 302 301 301 300 299 296 294 294 293 294 295 295 294 293 294 295 297 299 301 302 302 301 303 303 302 301 300 300 299 296 299 297 297 296 296 296 296 296 296 298 297
304 302 305 303 302 301 300 298 297 295 294 295 295 295 294 292 292 294 295 297 298 299 301 302 303 303 302 302 301 300 299 298 298 298 299 298 297 297 297 297 297 297 297 295
303 302 304 303 302 302 301 298 297 296 296 296 295 293 293 294 294 295 296 297 296 296 299 303 299 301 301 298 300 300 299 298 298 299 300 296 297 297 297 297 297 298 299 300
302 303 305 304 303 302 300 300 298 296 296 296 295 294 293 294 295 295 296 297 297 297 301 301 303 301 300 299 297 300 299 299 299 300 300 301 298 297 297 295 298 299 300 300
302 302 305 303 302 303 301 300 297 295 296 296 294 293 294 295 295 295 294 294 298 298 300 298 300 300 300 297 299 299 299 299 299 299 299 299 298 297 297 298 298 298 299 300
303 302 305 304 302 302 300 300 298 297 296 295 295 295 295 294 295 295 296 294 298 292 297 297 297 291 296 294 298 299 298 298 299 298 298 300 299 297 297 298 298 298 300 301
303 303 305 304 302 302 300 298 297 297 295 294 294 295 295 295 295 294 293 296 297 293 297 295 289 289 289 298 298 298 298 299 300 299 299 299 300 300 299 298 298 298 302 302
304 305 306 306 304 301 297 297 297 297 296 296 296 297 296 295 296 298 299 295 292 293 294 291 291 289 291 298 298 297 297 299 301 300 299 294 299 298 299 298 298 299 301 300
304 305 305 304 302 299 298 298 297 297 296 296 296 297 297 298 297 297 298 298 292 296 298 289 289 289 298 298 297 297 297 297 298 298 298 298 297 297 298 298 298 298 299 301
306 305 306 303 301 300 299 298 296 296 295 294 295 296 297 298 298 298 298 295 298 296 298 298 298 298 297 296 297 297 297 297 299 299 299 299 299 298 298 298 298 299 299 300
305 301 305 303 303 301 299 297 295 294 294 295 295 296 297 297 297 296 294 297 297 297 298 298 298 296 297 297 297 297 297 298 294 300 301 302 302 300 299 299 299 300 300 300
Wind_Speed
17 21 23 25 25 24 19 20 15 17 19 20 20 21 20 18 20 22 22 21 20 19 14 15 15 13 13 13 13 12 13 13 13 14 14 16 17 16 18 17 17 18 17 16
21 23 21 23 23 16 14 12 10 16 19 21 21 21 20 22 23 24 22 23 23 20 19 18 17 18 16 14 13 13 13 15 14 18 18 15 16 17 18 17 18 19 14 17
19 22 22 19 10 17 15 17 16 15 19 20 20 20 18 18 23 24 23 23 23 22 20 18 16 15 15 15 15 14 14 15 15 16 16 16 16 17 19 15 18 13 14 15
14 18 14 7 13 11 9 14 16 14 15 18 19 21 22 23 22 20 23 22 22 19 18 16 16 16 15 14 14 13 14 15 13 13 15 16 15 17 15 13 15 10 9 10
9 11 17 9 6 8 10 16 8 12 19 22 23 23 20 16 17 21 21 19 18 19 19 19 18 16 15 14 12 12 14 14 13 13 15 13 15 16 11 15 3 4 6 7
12 17 14 9 17 12 16 10 12 21 19 19 20 15 17 23 22 21 19 18 19 22 20 17 17 15 14 14 14 14 14 12 12 13 11 13 15 14 12 1 3 3 5 6
13 15 7 7 16 14 8 11 21 18 19 20 18 17 23 23 22 20 20 23 22 18 17 16 16 15 15 14 14 12 13 13 13 9 12 14 15 11 6 5 4 3 5 7
7 12 6 22 16 5 9 16 18 19 20 20 21 20 22 23 23 23 23 23 19 19 17 16 16 14 14 14 11 11 12 12 11 11 11 11 10 9 6 5 3 3 5 6
6 8 14 15 11 14 14 17 18 20 19 21 19 21 19 22 20 20 21 20 19 17 17 16 14 13 15 13 10 11 10 10 12 12 12 10 6 5 6 5 3 3 4 5
12 8 13 13 17 18 17 19 19 17 20 19 19 19 20 19 19 18 18 18 16 17 17 18 14 13 13 12 10 10 10 11 11 8 8 5 5 4 5 4 4 3 5 6
11 13 19 13 19 19 20 19 18 18 16 16 19 18 18 19 19 18 18 16 16 16 15 18 15 15 13 10 9 9 10 9 8 5 5 7 6 4 4 3 3 4 4 5
9 14 12 17 16 18 16 19 16 17 18 18 16 19 19 17 17 17 19 18 17 18 15 16 15 14 13 10 9 9 10 8 5 3 5 6 6 6 17 10 12 12 12 8
8 13 15 16 16 17 18 15 16 15 18 16 17 15 17 18 17 23 18 18 17 18 16 14 12 11 8 4 9 10 9 5 3 6 6 6 6 6 8 10 15 13 14 16
12 13 16 16 12 16 14 17 15 14 15 13 15 15 15 17 18 17 17 18 18 18 14 10 7 4 4 4 6 7 7 8 6 6 6 6 6 6 6 6 6 6 11 14
13 13 15 15 17 14 15 15 17 16 15 15 13 15 16 18 18 18 18 17 16 13 10 8 6 2 2 2 5 8 5 5 7 7 6 7 6 6 7 7 8 9 10 13
14 17 17 18 17 18 17 19 17 15 14 15 15 16 17 16 16 16 15 15 13 11 10 8 7 7 6 6 8 7 7 13 9 8 7 8 7 8 8 9 9 9 10 12
14 16 18 16 14 14 16 16 13 13 14 14 16 16 16 16 15 15 15 15 13 11 11 8 7 7 8 8 8 6 6 7 10 8 8 8 8 8 9 9 10 10 11 11
12 15 10 12 15 14 14 16 11 12 13 15 14 14 14 14 14 15 14 13 10 11 12 9 7 7 8 8 7 6 6 7 7 8 8 9 9 9 10 11 12 12 9 7
15 17 14 11 9 12 13 14 12 11 13 12 12 13 13 12 13 12 12 10 10 10 12 10 10 9 9 9 7 6 7 8 8 8 8 12 10 10 10 11 13 11 10 10
16 18 11 14 14 12 11 11 10 10 12 13 10 11 12 12 12 11 11 8 10 8 8 10 9 9 9 9 9 7 7 8 9 8 5 10 11 11 11 12 12 10 11 7
15 18 14 12 9 10 12 10 8 11 12 8 10 10 11 11 11 10 9 8 12 13 10 11 9 7 6 6 7 7 7 7 8 6 8 11 13 13 12 11 10 10 10 7
13 16 11 9 8 10 11 10 7 10 9 9 10 9 9 9 9 9 6 8 7 14 7 6 6 8 6 9 6 7 8 8 7 7 8 11 11 12 12 11 9 8 9 7
14 15 10 8 3 9 10 8 8 9 7 9 9 9 7 6 5 6 6 9 7 9 6 5 6 8 7 6 6 6 8 8 7 7 7 8 11 11 11 12 10 6 8 8
13 13 7 8 7 11 11 9 7 7 7 8 7 7 6 5 4 4 3 6 8 7 6 5 6 8 7 5 5 6 7 7 8 8 7 8 8 7 10 10 9 6 7 8
12 10 6 7 9 7 6 7 6 5 7 5 7 6 6 4 3 4 5 4 8 6 4 6 7 7 6 6 6 6 6 6 7 8 8 8 8 7 8 9 7 6 6 7
12 4 4 8 6 6 4 4 5 6 6 5 4 5 5 4 4 4 4 5 5 5 6 6 5 6 6 6 6 7 6 5 6 6 9 9 9 8 8 8 8 6 4 5
5 5 3 1 8 8 5 4 5 6 5 5 4 4 4 4 5 4 5 5 5 5 6 6 6 7 6 6 6 6 6 5 6 6 5 7 9 9 9 9 8 6 4 2
Wind_Direction
296 302 293 301 307 310 338 324 326 330 320 335 350 341 335 342 339 331 321 318 315 314 323 317 325 340 332 331 327 322 314 307 303 301 295 293 292 291 288 282 281 272 271 276
296 294 310 303 310 342 331 311 298 337 320 358 342 339 337 339 332 321 315 314 307 315 327 320 317 317 320 311 307 310 301 291 293 291 289 289 284 283 282 279 283 272 275 276
296 303 308 303 347 321 334 341 355 326 340 353 336 325 323 328 323 312 313 317 321 320 312 308 306 307 307 304 296 285 281 280 284 286 287 283 283 279 276 282 285 279 283 275
299 306 299 47 32 3 332 321 323 357 347 315 315 324 323 321 312 319 314 312 311 310 307 310 305 302 297 289 285 282 278 279 278 279 282 280 282 278 280 289 279 287 306 323
293 305 293 7 17 333 333 308 34 334 333 325 323 312 309 321 330 312 305 305 305 303 305 305 299 299 294 289 283 281 285 280 279 280 277 280 281 281 288 285 337 335 357 354
279 282 306 11 352 331 303 291 347 334 326 323 320 308 316 332 326 321 317 308 310 305 301 300 298 298 293 289 290 292 282 282 282 273 275 278 279 286 291 171 57 346 32 37
313 308 294 37 343 350 0 312 320 320 316 322 314 312 314 325 320 315 311 309 300 298 300 298 300 295 288 288 279 283 279 274 273 275 272 271 276 275 270 79 78 47 64 61
313 302 309 352 0 360 296 303 317 322 323 310 315 317 324 322 316 315 306 303 308 310 303 301 296 289 282 279 282 282 277 275 276 271 268 268 269 271 105 100 103 94 82 72
290 281 305 343 328 331 326 320 317 318 312 325 326 326 323 314 313 309 307 314 304 298 297 293 288 283 281 280 278 272 268 268 265 265 267 262 263 129 109 113 120 112 108 93
318 317 330 332 329 330 319 317 313 318 332 337 327 326 318 313 309 309 307 304 302 299 295 292 288 280 269 272 267 263 253 258 258 265 278 277 94 110 122 129 137 127 114 110
303 329 329 328 325 316 311 312 334 336 348 339 330 321 314 309 308 306 305 303 301 294 290 287 289 283 275 258 243 251 255 255 264 274 69 79 59 40 92 97 120 139 119 121
307 328 322 315 314 299 320 339 333 349 342 339 331 316 312 309 307 306 307 306 304 297 289 284 284 279 276 259 219 224 242 240 242 102 109 97 98 77 40 76 83 85 91 106
322 323 332 313 330 339 334 327 352 351 345 327 322 314 312 310 310 310 310 308 304 300 293 285 285 281 260 230 191 205 230 236 220 116 116 118 110 109 106 58 62 86 99 110
316 329 313 323 327 359 343 347 348 347 339 320 315 311 312 311 314 318 317 313 307 307 309 294 268 305 327 156 195 211 215 232 127 124 123 118 119 119 111 112 107 90 86 113
321 314 314 342 352 342 336 355 342 342 330 324 320 314 317 322 324 321 318 317 316 325 337 347 3 322 288 302 192 202 206 114 104 105 112 111 104 93 94 98 101 105 110 100
328 324 341 344 349 336 356 349 347 334 328 323 319 319 321 323 319 321 323 328 334 344 351 7 28 26 45 75 82 75 82 98 101 113 111 101 100 101 101 106 110 114 118 123
325 335 348 359 334 335 357 356 344 330 323 320 320 323 325 328 324 331 336 339 336 349 5 15 30 41 49 68 84 93 95 95 101 101 103 104 106 108 110 114 117 119 116 109
339 341 10 341 340 353 349 353 333 325 320 315 320 326 332 333 329 329 333 331 341 2 8 16 13 45 58 71 85 89 95 98 101 107 112 108 105 107 112 113 111 111 102 87
338 335 359 6 5 359 350 344 329 323 316 322 325 332 326 323 329 330 333 344 3 9 359 2 21 54 59 43 82 92 99 106 109 111 105 114 109 112 114 113 116 110 114 109
337 331 1 7 358 11 352 346 323 321 321 320 331 330 331 335 338 337 342 354 1 349 349 8 24 50 56 55 47 78 86 98 108 105 100 118 117 113 112 109 119 112 122 111
342 329 19 13 349 1 4 350 333 323 321 351 331 330 333 332 342 339 358 2 2 353 16 12 23 43 46 56 58 75 78 87 101 86 91 106 117 119 118 118 122 116 126 128
339 333 8 3 5 357 5 347 335 322 334 337 334 334 338 341 344 346 24 359 352 359 14 11 27 32 50 63 68 75 80 84 92 87 93 112 117 126 127 126 130 135 147 156
329 327 7 355 45 20 6 352 342 342 356 339 333 338 344 337 336 349 360 2 4 3 19 22 11 42 47 68 70 73 92 98 101 95 89 100 122 129 129 133 144 165 141 140
314 325 352 15 37 23 10 348 344 349 338 333 334 341 350 344 340 356 359 357 355 18 27 16 31 39 52 69 70 72 78 86 104 102 87 80 85 100 127 133 144 140 130 124
321 316 68 5 42 25 8 332 332 338 330 328 348 345 351 350 351 343 1 6 16 21 36 33 40 43 50 71 73 78 75 75 86 97 105 107 108 103 112 129 127 126 123 126
291 348 49 80 89 40 14 350 343 343 355 352 2 352 350 353 358 6 11 7 22 35 45 40 47 56 59 64 78 85 90 77 83 105 118 123 122 119 122 120 118 121 115 117
94 27 53 96 91 52 37 14 16 12 348 342 344 346 350 359 13 29 29 41 42 43 47 51 49 51 58 66 74 71 81 72 50 71 78 127 132 130 127 130 127 127 119 130